Meath Environmental Platform

Observations for Trim Market St

Time AQI Temp °C Hum % Pres Pa CO μg/m³ H₂S μg/m³ NO μg/m³ NO₂ μg/m³ O₃ μg/m³ SO₂ μg/m³ PM1 μg/m³ PM2.5 μg/m³ PM10 μg/m³
Wednesday 15 July 2026
13:24 1 36.9 31 66,602 0 0 0 3.34 21.62 0 7.13 13.04 17.86
13:23 1 36.9 31 66,604 0 0 0 3.33 29.96 0.05 8.55 11.95 16.13
13:22 1 36.9 31 66,576 0 0 0 5.34 24.09 0 7.84 11.96 15.27
13:21 1 36.8 31 66,574 0 0 0 2.56 30.14 0 7.84 12.49 16.99
13:20 1 36.8 31 66,568 0 0 0 1.95 13.05 0 8.55 13.57 17.84
13:19 1 36.8 31 66,560 0 0 0 7.41 27.2 0 6.41 10.3 12.67
13:18 1 36.7 31 66,576 0 0 0 4.24 31.75 0 9.26 13.55 19.54
13:13 1 36.6 31 66,505 0 0 0 5.4 23.66 0 7.13 11.4 14.4
13:10 1 36.6 31 66,531 0 0 0 0 27.42 0.21 7.84 13.56 18.69
13:05 1 36.6 31 66,548 0 0 0 6.09 33.31 0 6.41 10.85 13.54
13:02 1 36.7 31 66,545 0 0 0 0 28.82 0.25 8.55 13.03 17.84
13:01 1 36.7 31 66,539 0 0 0 0 34.66 0.63 7.13 10.85 13.54
12:58 1 36.7 31 66,550 0 0 0 0 41 0.37 6.41 10.85 15.26
12:57 1 36.7 31 66,543 0 0 0 0 36 0.64 5.7 9.78 13.54
12:56 1 36.7 31 66,558 0 0 0 0 29.62 0.61 7.13 12.49 16.98
12:55 1 36.7 31 66,556 0 0 0 0 31.6 0.5 8.55 12.48 16.12
12:54 1 36.7 31 66,548 0 0 0 0 26.94 0 8.55 13.02 16.97
12:53 1 36.7 31 66,566 0 0 0 9.15 25.45 0 7.84 12.47 16.11
12:51 1 36.7 31 66,554 0 0 0 0 19.64 0.06 9.26 14.08 19.53
12:50 1 36.7 31 66,545 0 0 0 0 32.84 0.55 7.13 10.82 13.52